RH
10 8 8 9 11 13 13 13 14 16 17 18 23 27 26 24 23 21 19 18 17 16 17 24 31 30 22 19 21 26 27 28 28 28 29 31 34 36 37 36 36 39 46 52 61 70 78 77 56 25 11 13 13 12 11 14 19 21 27 27 28 36 45 60 79 82 66 49 53 66 77 82 74 67 69 71 77 86 87 80 70 59 50 44 37 30
10 8 10 12 13 13 13 14 15 17 18 19 26 29 27 25 19 17 18 17 19 22 20 25 32 30 22 21 25 28 28 29 29 30 32 32 35 36 36 36 40 47 51 55 64 72 76 65 36 11 7 10 8 11 19 25 25 19 20 22 26 35 37 43 60 77 84 64 40 43 70 94 95 90 91 88 85 91 97 100 96 84 73 64 51 41
10 9 12 14 14 13 13 14 16 17 18 20 26 27 25 25 21 16 16 17 20 23 21 25 34 32 25 24 28 28 28 30 32 34 34 34 35 36 36 39 45 51 53 59 67 70 68 52 23 6 6 6 7 23 42 43 30 18 19 18 17 19 20 28 35 47 77 78 48 40 54 78 97 102 102 98 93 93 94 96 97 91 87 85 79 73
10 12 14 14 13 14 14 15 16 16 18 22 26 26 23 23 24 21 17 17 20 24 27 31 34 31 27 27 29 29 30 32 35 36 35 35 36 37 40 44 49 52 54 59 63 67 65 41 14 5 6 4 16 51 67 52 35 29 26 18 11 11 9 22 36 44 59 55 42 43 39 45 68 86 98 103 100 98 93 89 88 90 93 99 99 95
11 13 14 14 14 14 16 16 16 16 17 21 24 24 22 20 23 22 19 18 21 29 33 32 32 29 27 30 29 29 32 34 35 35 35 37 38 41 45 47 51 53 55 58 61 70 63 28 5 6 7 4 19 58 71 57 47 34 20 12 9 10 6 12 31 41 40 29 27 40 51 62 72 82 94 101 102 100 97 94 94 98 101 101 102 97
12 14 15 15 15 15 17 15 16 18 17 20 22 21 20 21 21 19 20 22 24 32 34 32 38 36 29 31 31 30 34 34 34 35 37 39 42 46 48 48 53 55 56 62 67 73 56 19 6 8 5 5 16 40 56 58 52 28 12 10 9 11 9 11 20 23 24 24 21 37 75 99 96 95 100 99 100 100 99 100 100 102 101 95 92 91
13 15 15 16 16 16 17 16 18 19 18 20 21 19 19 20 21 20 22 24 26 33 34 33 42 42 33 32 32 32 35 34 34 37 38 42 46 48 48 51 56 57 60 72 80 77 48 13 9 11 4 9 25 47 62 60 44 21 9 9 8 9 11 15 19 18 22 26 20 30 67 98 100 98 101 100 99 100 101 100 99 99 97 90 84 84
14 16 16 17 18 17 17 18 19 19 20 21 20 20 19 17 21 25 24 26 30 35 36 35 38 37 32 31 32 33 34 34 35 39 41 44 47 46 50 56 60 62 69 82 88 72 37 9 9 11 8 13 26 41 48 40 27 15 9 9 9 9 9 12 14 13 12 15 20 27 43 75 100 100 98 101 99 100 103 100 99 100 99 97 92 90
15 16 17 18 18 19 19 19 20 20 21 22 20 20 19 20 24 25 25 29 35 40 39 34 33 36 34 31 32 33 32 35 37 39 43 44 46 48 52 57 60 69 81 87 75 46 20 10 10 11 12 18 24 24 23 21 16 10 8 11 11 8 8 9 8 8 8 7 16 28 32 55 89 99 96 99 99 98 101 101 100 100 99 100 100 99
16 16 18 19 19 20 20 20 21 21 22 22 22 21 20 23 24 25 29 30 35 45 42 32 29 38 42 32 30 33 32 36 39 39 43 44 46 52 53 56 66 79 88 80 51 24 17 19 16 16 16 19 22 19 16 16 12 7 8 12 12 10 8 8 7 7 9 7 8 20 32 45 75 97 97 95 97 97 96 96 98 100 100 100 101 100
17 19 19 19 21 21 21 21 21 22 24 23 23 23 23 26 25 28 31 30 39 47 38 30 28 39 51 40 29 34 35 35 39 40 43 45 48 54 57 65 80 87 82 63 35 20 24 25 19 18 15 13 15 14 12 12 9 7 8 13 16 14 10 8 8 6 7 9 8 11 22 33 58 88 98 96 96 96 95 93 92 93 91 90 95 96
18 21 20 19 21 22 21 21 21 23 24 25 26 25 27 29 28 31 32 34 48 47 31 27 30 40 54 44 31 35 36 35 39 41 43 48 52 59 68 77 83 81 68 50 32 21 19 19 18 15 11 11 11 10 11 10 9 7 7 13 19 19 16 10 7 8 7 8 9 9 13 20 33 56 79 92 94 91 88 84 81 80 77 79 87 92
18 20 20 20 21 22 23 22 23 24 25 26 27 27 34 38 39 41 38 38 45 41 29 29 37 44 46 38 33 36 36 37 41 43 46 51 58 66 74 77 74 70 62 51 37 20 11 13 14 11 10 11 10 10 10 8 8 8 7 13 20 23 22 16 9 7 7 7 9 9 10 12 15 24 45 70 87 94 94 90 87 85 82 84 89 93
21 24 23 22 23 23 24 23 24 26 26 29 29 32 41 47 53 56 49 46 48 39 31 34 43 48 40 34 36 36 37 41 43 45 49 56 64 69 71 69 66 64 61 51 32 14 8 10 10 9 10 11 11 11 10 8 8 8 6 10 19 26 29 28 20 11 7 7 8 8 9 10 11 12 17 31 50 70 88 97 98 98 99 97 95 92
26 31 26 24 25 25 26 25 26 28 29 31 33 34 39 42 51 57 52 52 54 46 41 41 45 44 37 36 37 37 41 44 44 48 54 61 66 68 67 64 62 61 55 39 19 8 7 8 8 9 10 11 12 11 9 9 8 6 7 8 15 25 34 39 34 21 11 8 7 8 9 9 9 10 10 11 16 25 40 53 60 67 72 70 63 57
24 29 25 23 26 26 26 26 27 30 31 33 35 35 37 39 43 48 48 46 49 55 54 45 40 37 36 37 39 41 44 44 47 52 58 63 64 64 64 61 60 56 40 21 10 6 7 7 7 8 9 11 13 11 9 8 7 6 6 8 15 28 41 50 48 34 17 8 7 8 8 9 9 9 9 10 10 10 12 15 18 21 25 24 23 20
23 25 23 24 27 27 28 27 28 31 32 33 36 37 38 40 40 47 53 46 48 61 57 41 37 37 40 42 40 41 44 44 50 56 59 61 63 65 63 61 62 48 23 11 8 7 6 7 7 8 9 11 12 11 8 7 8 7 6 10 23 41 55 61 59 45 23 9 8 8 7 9 8 8 9 9 9 10 10 11 11 11 11 12 12 12
24 24 24 26 27 28 29 28 29 31 32 33 37 39 38 40 43 47 56 55 57 65 54 39 40 43 45 47 41 40 44 47 53 59 61 62 65 64 61 65 61 35 13 10 8 7 7 7 7 7 9 11 11 10 8 7 8 7 10 21 40 59 67 65 60 49 27 10 7 8 8 8 9 9 10 10 10 11 10 11 11 12 12 12 12 13
26 26 26 28 29 30 30 31 32 32 33 35 37 38 36 43 48 46 52 61 68 72 60 45 44 46 46 44 40 41 46 50 56 59 60 61 62 61 65 68 49 19 9 10 6 6 7 6 6 8 9 8 8 8 7 8 8 7 17 37 57 69 72 68 62 48 27 12 8 8 8 10 11 11 12 13 14 15 15 15 15 15 15 15 16 16
27 29 30 29 29 31 31 32 33 32 34 37 39 40 39 43 48 46 48 55 63 72 70 60 54 49 44 40 40 45 48 52 58 60 60 61 60 62 66 56 29 10 9 8 5 7 6 5 6 7 8 6 5 6 6 6 7 12 30 52 66 71 72 73 65 46 24 12 8 8 9 11 12 15 17 19 20 22 24 26 29 32 33 34 36 37
26 31 32 28 29 33 34 34 34 33 34 37 40 43 43 43 45 48 51 49 54 67 73 73 67 49 38 41 44 47 50 55 59 61 61 61 61 62 56 36 16 10 9 5 6 6 4 5 6 6 7 4 3 5 5 5 8 22 46 62 68 71 72 72 69 51 26 10 8 9 10 12 16 18 20 24 31 39 47 55 60 64 67 69 71 73
27 31 31 28 29 33 34 34 34 34 35 37 40 42 44 45 44 54 63 55 52 60 62 71 74 51 35 43 47 47 53 57 59 62 62 61 62 60 47 30 16 10 6 5 6 5 4 5 5 5 5 3 4 5 4 7 15 35 56 65 67 69 69 70 72 59 31 12 9 9 11 16 18 21 30 43 56 67 75 80 81 83 85 86 88 90
28 31 31 29 31 33 34 35 35 36 36 37 41 41 44 46 43 52 63 57 54 60 56 64 75 55 37 43 48 49 55 58 61 65 64 63 62 56 43 28 16 8 5 6 5 4 5 5 4 5 4 3 4 4 4 10 26 47 59 62 64 65 65 68 72 63 36 14 10 11 15 18 20 33 54 69 76 79 82 83 84 86 87 88 92 94
29 32 32 30 32 33 34 35 35 36 38 40 42 42 44 46 45 49 56 54 57 59 54 67 78 56 39 45 50 51 57 60 64 67 65 65 62 53 41 27 14 8 6 5 5 4 4 4 4 4 3 4 4 3 6 17 37 53 57 60 62 62 64 66 71 67 40 14 11 15 16 21 36 59 75 77 75 76 80 84 86 87 88 90 94 95
30 34 34 38 43 43 41 41 40 39 42 45 46 45 45 46 48 51 53 58 63 57 53 71 76 53 41 49 52 54 60 62 65 68 66 66 62 53 40 25 13 8 5 5 5 4 4 4 4 4 3 4 3 3 9 25 44 54 57 60 61 63 66 66 70 69 42 17 14 15 21 40 63 76 75 71 73 77 82 86 87 89 91 93 95 93
29 31 33 40 50 52 49 46 44 41 42 44 43 44 45 46 48 50 53 62 66 56 53 63 62 48 45 51 53 58 63 64 67 69 68 67 63 54 41 27 15 8 5 5 4 3 4 4 3 4 3 4 3 3 13 33 49 54 57 61 63 68 70 69 72 67 41 19 13 17 37 63 75 75 72 74 79 82 86 88 90 92 93 93 94 94
28 28 31 35 39 41 40 39 39 39 40 41 42 44 45 47 48 48 52 58 56 52 53 53 51 50 49 50 57 62 64 66 68 68 69 68 64 57 45 29 17 9 6 5 4 3 4 3 4 4 3 4 3 4 18 39 51 54 57 62 68 73 74 72 72 62 37 16 14 30 57 72 72 73 78 83 86 88 91 92 94 95 94 94 95 96
28 28 30 33 33 35 35 35 37 39 41 42 44 45 45 46 46 44 47 48 46 52 56 50 50 54 50 51 61 64 63 67 68 68 70 70 67 61 49 33 19 11 7 5 4 4 4 3 4 3 3 4 2 6 24 43 51 54 59 65 72 76 75 73 70 59 33 13 23 49 66 69 71 79 86 89 92 93 94 95 95 95 95 95 95 96
29 29 30 32 33 33 35 36 38 40 42 44 45 45 44 44 42 40 43 44 44 52 55 52 54 55 51 55 64 63 64 67 67 69 72 72 70 65 54 38 24 14 9 6 4 4 3 3 4 3 3 4 1 8 28 45 50 54 61 68 73 75 74 71 69 55 27 17 41 62 65 68 76 84 89 92 94 94 94 94 94 94 94 94 95 97
31 31 31 33 32 31 34 37 38 41 43 42 42 42 41 40 38 39 43 45 46 50 52 54 57 53 50 59 64 62 63 65 66 70 73 75 74 69 59 44 28 18 12 6 4 4 3 3 3 3 4 3 1 10 30 45 50 54 63 69 71 73 72 69 64 43 19 27 56 64 63 71 80 84 90 91 90 91 91 93 93 93 95 97 98 98
32 32 34 35 34 32 33 36 38 42 44 41 39 39 40 40 40 41 44 47 49 51 53 57 57 51 52 62 64 61 63 64 65 69 73 77 77 73 66 51 34 23 15 7 5 4 3 4 3 2 4 3 1 10 31 45 49 55 64 66 66 69 69 66 55 30 17 40 62 61 63 74 77 81 86 85 86 89 90 92 92 93 97 98 98 98
31 34 34 36 38 34 33 39 41 42 45 42 38 38 41 43 44 44 46 50 51 53 56 57 53 50 56 63 62 62 63 63 64 67 72 77 78 77 73 60 43 30 19 11 8 4 3 3 3 2 3 3 1 9 31 45 48 55 62 61 62 65 64 61 45 20 24 52 62 57 63 71 73 78 81 81 85 88 88 90 92 94 97 95 92 92
31 33 33 39 43 36 34 40 40 42 49 45 37 37 41 43 45 46 48 50 52 54 55 52 48 52 60 62 60 62 63 63 64 67 70 74 78 81 79 68 53 36 23 17 12 6 4 3 3 3 3 3 1 8 29 43 47 54 57 55 59 61 59 55 33 15 32 57 58 55 62 67 71 76 78 80 84 85 86 89 91 93 93 88 86 89
31 33 35 41 45 39 37 39 41 51 59 48 34 36 41 43 45 47 48 49 51 50 48 46 49 56 61 59 59 62 62 63 65 66 68 72 76 81 82 75 61 43 31 26 18 9 5 3 3 3 3 4 1 5 26 42 46 51 53 52 56 57 56 48 23 15 40 58 53 53 60 63 69 74 77 80 82 83 85 87 89 89 87 84 86 93
31 33 36 40 43 41 39 43 50 57 52 38 31 36 40 43 45 47 46 44 44 45 44 48 54 58 59 59 59 60 62 63 64 64 66 70 74 80 83 80 70 55 41 35 26 14 6 4 4 3 2 4 1 3 22 40 45 48 49 49 52 53 51 40 18 18 46 56 49 53 58 61 68 73 75 78 79 80 83 84 85 84 82 85 91 96
31 34 37 39 43 44 45 51 57 50 34 26 30 35 38 42 45 49 44 32 33 42 45 51 58 59 60 62 59 61 64 63 61 62 65 68 72 78 83 84 80 68 52 43 33 19 9 5 3 3 2 4 2 2 18 37 45 45 46 47 49 49 44 31 14 23 48 54 47 51 57 60 67 71 74 76 77 78 79 80 81 81 82 86 92 95
31 35 38 41 43 46 49 51 49 43 34 29 30 34 39 42 45 52 47 28 28 42 49 54 62 63 64 65 61 63 66 61 58 61 63 66 70 76 80 84 86 77 62 52 41 26 13 6 4 3 3 3 2 1 13 34 44 43 44 46 47 45 38 23 13 27 49 51 46 50 55 58 64 68 71 73 73 74 74 75 76 80 84 87 89 91
32 34 37 42 44 46 52 54 54 55 47 35 31 34 40 44 46 53 50 34 31 44 53 59 65 65 66 68 65 67 68 62 58 60 62 65 70 74 78 84 89 84 72 62 50 33 18 8 4 4 3 3 3 0 8 29 42 43 42 43 44 43 34 20 15 31 48 49 46 48 52 56 61 65 67 68 69 69 69 72 76 80 84 87 87 89
31 33 35 41 42 42 50 56 59 56 43 30 32 36 40 45 48 51 51 41 37 49 59 64 66 67 70 70 69 70 70 66 62 62 64 67 69 73 78 83 89 89 80 71 60 41 23 12 6 5 3 3 3 1 5 23 39 44 41 40 42 41 32 20 19 33 47 48 46 47 50 54 58 61 64 64 64 64 67 72 78 80 82 85 88 91
31 33 35 38 39 40 47 54 52 43 33 30 34 37 41 46 47 50 54 49 46 56 65 65 65 67 69 70 70 71 71 69 67 65 66 68 69 73 78 82 87 91 87 80 69 50 29 16 8 6 4 3 3 2 2 15 35 44 41 39 40 40 33 24 23 35 45 46 45 47 48 51 55 57 59 61 61 63 67 73 79 81 81 84 88 92
30 33 35 36 37 40 48 55 51 38 30 31 35 37 42 46 46 50 55 54 56 62 63 60 59 58 59 64 66 67 66 66 66 65 66 68 69 73 77 80 86 91 90 86 78 60 38 21 11 7 5 3 3 3 1 9 27 41 42 38 38 39 36 29 27 36 44 44 44 46 46 48 52 53 55 58 59 61 67 74 79 81 81 82 86 91
31 34 35 35 36 39 43 51 52 41 30 31 35 38 43 47 47 50 55 55 57 59 55 49 47 45 47 52 54 54 53 53 56 58 60 63 66 70 76 80 84 90 93 92 86 70 48 28 16 10 7 4 3 3 1 3 18 35 43 39 36 37 38 34 31 36 42 42 43 44 44 45 48 49 51 56 58 60 64 71 77 79 79 81 85 91
31 34 34 33 35 40 43 49 52 44 32 31 36 40 46 49 50 54 55 48 45 48 47 40 35 36 38 39 40 41 40 41 45 48 51 55 59 64 71 76 82 89 94 94 90 79 59 38 23 14 9 6 4 3 2 1 9 26 40 42 37 36 37 37 35 36 40 41 41 41 41 42 43 46 49 53 56 58 60 65 71 76 78 80 84 90
31 31 32 32 34 39 41 42 40 34 30 35 41 44 46 46 44 47 47 36 29 33 36 29 26 28 30 30 31 33 34 36 39 42 44 48 52 57 65 72 80 88 93 95 95 87 70 50 33 20 12 8 5 3 3 2 3 15 33 42 41 36 34 36 37 37 38 39 39 39 39 39 40 42 45 49 52 55 57 61 66 72 76 78 82 89
29 29 30 32 32 34 35 32 29 29 34 40 41 38 35 33 33 37 37 29 24 27 29 26 26 26 26 26 28 29 31 35 37 39 41 44 46 52 59 67 77 85 91 94 96 93 81 65 47 31 18 11 7 4 3 3 2 7 22 37 43 39 34 34 36 37 36 37 38 38 37 37 37 39 42 46 49 51 54 58 62 68 74 77 81 86
28 29 30 31 31 32 31 28 28 33 36 37 36 35 33 34 37 42 42 38 37 37 38 37 36 34 31 30 30 31 34 36 39 41 42 42 46 51 57 65 74 81 87 92 96 96 90 77 61 43 25 14 9 5 3 4 2 3 12 28 40 43 38 34 34 36 36 36 37 38 37 36 36 37 40 43 47 50 53 56 59 63 69 75 79 82
27 28 31 31 32 33 31 27 33 40 38 34 38 43 44 47 52 56 57 57 57 57 57 56 54 51 46 42 39 39 39 40 43 46 46 46 49 54 59 65 71 77 83 90 95 97 95 85 73 57 37 21 12 7 4 4 3 2 6 16 31 41 42 38 35 35 35 37 37 38 38 38 37 37 39 42 45 49 52 55 57 59 64 71 76 78
29 30 32 31 33 35 32 30 37 40 32 27 33 40 42 47 53 57 60 63 64 66 68 70 70 69 66 61 56 51 47 47 50 51 51 52 53 57 61 66 70 75 80 86 92 97 97 91 82 70 51 31 17 9 5 4 4 3 3 8 19 33 41 42 39 36 35 37 39 40 41 41 39 39 39 41 44 48 51 54 57 58 60 65 71 74
31 32 33 34 37 38 33 30 35 35 23 15 20 30 37 44 49 52 55 61 64 67 71 74 75 77 79 78 75 69 62 59 58 57 58 58 59 61 64 67 71 75 79 83 89 94 96 94 88 80 65 44 26 14 8 5 4 4 3 4 11 22 33 41 43 41 38 37 38 41 43 43 43 43 42 42 44 46 49 53 57 60 61 64 69 71
35 35 36 39 42 39 34 34 42 47 37 23 23 32 39 41 42 43 45 50 56 62 69 74 75 76 79 82 84 84 80 74 71 67 64 64 65 67 68 69 73 76 79 83 87 90 94 95 91 85 76 58 37 20 11 6 5 4 3 3 5 13 23 33 40 43 43 40 39 40 43 45 46 46 46 46 46 45 47 51 56 62 66 68 70 73
38 39 40 42 44 43 43 45 52 58 53 41 39 45 47 45 44 40 35 37 43 49 56 62 66 72 77 81 84 87 88 86 85 81 76 73 72 72 72 73 76 78 81 84 86 88 91 94 92 89 83 71 50 30 16 9 7 5 4 4 3 6 14 24 33 40 44 45 44 42 42 45 47 48 48 49 50 50 50 51 54 61 67 69 71 75
Wind_Speed
14 12 13 18 20 20 19 18 20 20 18 19 17 16 20 23 24 22 20 20 22 25 21 13 12 19 27 28 24 22 25 28 29 30 32 34 36 39 41 46 54 57 52 49 46 44 44 50 61 67 63 59 56 55 55 54 53 52 51 51 49 45 43 41 38 38 41 41 38 37 41 43 44 45 46 44 40 39 40 43 45 47 46 45 45 44
13 14 18 20 19 17 16 18 22 21 19 20 17 14 18 23 28 23 18 20 20 22 20 13 13 22 29 28 23 22 25 28 30 30 31 34 37 39 43 51 54 53 52 50 46 45 48 58 66 63 56 53 52 51 50 49 49 49 49 49 47 44 42 41 38 36 37 40 38 35 35 39 41 41 41 42 41 38 37 37 40 44 45 45 46 44
13 17 19 17 17 16 16 20 22 20 20 20 16 17 24 26 27 21 17 18 17 18 19 13 14 23 30 28 23 24 27 28 29 29 31 35 37 40 47 52 51 51 53 51 49 49 54 63 65 56 52 51 50 48 46 47 48 48 50 50 47 44 42 41 40 37 34 36 38 37 34 34 36 38 36 37 41 42 41 40 40 41 39 37 40 42
14 17 17 16 16 17 19 20 20 21 21 18 16 22 29 29 25 20 19 20 16 15 15 14 17 25 28 25 24 27 28 26 26 28 31 34 37 43 49 51 50 52 54 54 54 55 59 63 60 53 52 50 46 42 42 47 50 51 52 49 46 42 40 37 37 37 36 37 37 37 36 34 34 35 36 37 40 42 42 40 38 36 34 33 35 38
15 16 16 16 17 19 19 19 20 23 23 19 20 26 30 28 21 17 20 21 18 12 11 16 20 22 21 23 27 28 25 24 26 29 32 36 40 46 50 50 51 54 55 55 57 58 60 62 58 53 53 51 43 38 41 47 50 52 52 49 45 41 36 33 33 35 38 39 37 31 30 30 30 32 36 37 35 34 33 32 31 31 32 32 34 38
13 16 17 16 18 20 18 18 21 24 24 22 23 28 28 24 18 16 16 20 21 12 11 17 14 11 17 25 29 26 23 26 28 31 35 39 43 48 50 52 54 56 57 56 57 57 59 61 57 53 55 52 45 41 43 46 50 52 51 47 42 38 34 32 34 36 36 38 37 29 23 24 26 29 31 31 29 29 29 28 29 32 34 36 38 40
10 14 17 18 19 20 17 18 21 23 23 22 24 28 24 17 16 15 14 18 18 12 15 16 8 10 20 23 24 24 24 28 30 34 38 41 45 50 52 53 55 57 59 58 56 56 59 59 56 54 56 53 46 42 42 46 51 54 50 44 40 37 34 32 32 34 34 34 34 29 25 24 24 27 29 30 31 31 30 29 31 33 35 37 39 40
9 12 17 19 19 19 19 18 20 22 22 23 26 27 20 13 14 13 12 14 14 16 17 9 5 14 21 20 22 24 24 28 32 36 39 44 49 52 52 53 55 58 58 56 55 58 60 59 56 55 56 54 48 44 44 48 53 53 48 42 39 36 32 31 31 31 32 32 31 28 27 28 27 29 31 32 32 32 33 33 33 33 33 34 36 39
8 11 15 18 18 20 20 18 20 22 22 24 28 28 19 12 13 12 13 13 11 15 12 4 9 14 17 21 22 21 23 29 33 36 40 46 51 53 53 54 55 55 55 54 57 60 60 58 56 55 55 53 51 50 51 52 53 49 43 40 38 34 30 31 31 29 29 29 28 26 27 30 31 32 34 35 35 35 37 37 36 36 35 36 38 41
9 10 13 17 19 21 20 18 20 22 23 26 30 32 22 13 13 9 10 12 8 9 6 4 14 12 11 17 16 16 24 28 31 35 40 48 51 52 54 54 53 53 55 58 61 60 57 56 56 55 56 54 53 54 55 54 50 44 39 37 37 33 29 30 30 28 27 26 25 25 27 30 32 34 36 39 41 42 42 41 42 43 43 44 46 48
11 10 12 18 20 21 20 18 20 22 24 28 32 35 25 15 14 7 6 8 5 4 2 4 18 16 8 8 11 18 25 28 32 36 42 50 52 52 52 52 51 55 59 61 60 57 55 56 57 57 57 56 56 56 56 53 47 40 35 34 35 35 32 30 29 27 25 25 24 23 26 30 34 36 38 40 43 44 45 46 47 48 48 49 50 51
14 11 13 18 20 21 20 18 20 22 24 27 31 34 26 15 11 6 5 4 3 3 3 10 24 19 7 10 19 24 27 32 36 39 47 53 52 50 50 51 53 58 62 60 57 58 58 58 58 58 58 57 57 56 55 50 44 39 35 32 33 33 32 32 30 28 25 24 24 23 24 28 33 37 40 42 44 45 46 47 48 48 49 49 49 49
15 12 12 17 20 21 21 18 19 21 22 24 29 32 22 10 8 4 2 3 5 7 11 20 27 15 10 18 25 26 32 38 37 43 52 54 50 49 50 53 57 59 59 56 56 59 60 58 57 58 58 58 58 57 54 48 41 39 36 32 33 34 33 32 32 29 26 24 23 23 23 25 29 34 39 43 45 46 46 46 47 47 48 48 49 50
13 9 8 14 19 22 22 18 18 19 19 22 27 28 15 4 5 4 2 3 5 12 24 28 20 11 13 21 26 31 37 36 38 48 55 51 49 51 53 56 56 56 55 55 57 59 58 58 58 58 58 58 59 57 54 47 41 39 36 31 32 34 34 34 33 31 28 25 24 23 23 23 26 29 33 39 43 46 47 48 49 50 50 51 53 55
10 6 8 13 17 22 22 17 16 17 17 18 20 20 13 4 1 2 4 5 7 19 31 24 8 9 17 23 30 33 30 32 43 52 52 49 50 52 54 55 54 56 56 57 58 58 57 58 59 58 59 59 60 57 53 47 41 37 34 31 30 32 34 34 34 32 29 27 25 23 23 23 24 26 28 31 36 40 44 47 50 52 53 54 55 56
10 7 10 14 16 22 22 15 16 15 13 14 14 16 15 6 2 6 10 12 15 18 20 14 11 18 24 28 30 26 26 38 48 50 48 47 50 53 54 55 56 58 59 59 59 58 58 59 59 59 60 60 60 57 52 46 41 37 35 34 32 32 34 34 34 33 30 28 26 24 24 23 23 24 25 27 29 32 35 39 41 43 45 47 47 47
12 9 8 12 17 22 20 14 15 14 14 15 12 13 15 8 6 9 11 14 14 10 9 14 20 25 26 26 24 23 32 44 45 44 45 47 51 54 54 56 59 60 60 60 58 57 57 58 59 60 61 60 60 57 52 44 40 38 37 36 35 35 34 33 32 32 30 28 26 25 24 24 24 24 24 25 26 28 30 31 33 34 36 37 38 38
14 10 7 11 17 22 18 14 14 14 16 17 12 12 14 8 7 10 8 8 6 4 8 14 20 26 25 18 21 30 38 43 43 42 45 49 53 54 54 58 61 61 60 58 56 55 56 58 59 60 60 60 58 55 50 45 41 38 37 36 36 35 35 33 30 30 30 28 26 25 24 23 24 24 24 24 24 26 27 27 29 30 31 32 32 33
14 10 7 11 18 20 18 14 14 15 16 17 15 16 14 5 4 8 7 5 4 3 7 12 18 24 20 17 26 35 40 44 43 41 45 50 52 53 56 60 61 60 58 56 55 56 57 58 59 60 60 59 55 50 46 43 40 37 35 35 34 33 33 33 31 28 28 28 26 25 24 23 23 23 24 24 24 25 25 26 27 27 28 29 29 30
14 9 7 13 19 19 17 13 13 16 17 18 19 19 15 6 4 7 5 4 4 3 5 12 16 17 18 24 32 35 40 44 40 40 46 48 50 53 55 58 58 57 56 56 56 56 57 58 59 59 59 58 54 48 42 39 37 35 35 35 34 32 32 32 31 28 26 26 25 24 24 23 23 23 24 25 26 26 26 26 27 28 29 29 29 30
14 8 7 15 20 17 15 14 15 16 17 17 19 18 16 11 8 9 8 7 6 3 2 6 11 22 28 29 31 35 40 42 39 44 49 49 51 54 54 56 57 56 56 56 56 57 58 58 58 58 58 57 52 46 42 39 37 35 35 34 33 32 32 32 31 29 26 25 24 23 23 23 23 23 24 26 28 28 28 28 29 29 30 30 30 30
14 8 9 17 20 16 15 16 17 16 15 18 20 19 17 15 11 7 5 7 7 7 7 3 10 32 39 31 31 38 40 41 44 48 51 51 53 55 55 56 57 56 56 55 56 58 58 58 58 57 57 55 50 44 41 39 38 37 36 33 32 31 31 32 31 29 27 25 24 23 22 23 23 24 25 27 28 29 28 27 26 26 25 25 24 24
14 9 11 18 18 16 16 14 15 15 15 19 22 22 19 17 14 7 3 9 11 13 15 8 11 30 38 33 36 41 40 43 47 49 51 51 54 56 56 57 57 56 56 55 56 57 57 58 58 57 56 53 48 42 39 37 37 36 36 34 33 32 31 31 29 28 26 24 23 22 22 22 24 25 26 25 25 25 24 22 21 20 19 18 18 17
13 8 13 19 17 16 15 13 12 14 16 19 23 24 21 19 19 13 11 15 15 15 16 7 9 26 38 38 41 42 41 44 46 48 51 51 54 57 56 56 57 56 55 55 56 57 57 58 58 57 55 52 48 43 38 37 36 36 35 35 34 33 31 29 28 26 24 23 22 21 22 23 25 25 23 21 21 20 19 19 17 16 15 14 14 14
12 9 13 15 12 11 11 8 9 13 17 20 24 25 24 23 21 18 16 14 11 15 14 5 11 33 44 42 43 43 43 46 46 48 50 51 55 57 55 56 57 55 55 55 56 57 58 58 57 57 54 52 48 43 40 38 37 37 37 36 36 34 31 28 26 24 23 22 21 20 22 24 24 22 20 19 18 18 17 16 14 13 12 12 12 12
13 12 13 9 5 5 8 9 13 20 23 23 25 27 27 26 22 20 17 11 11 17 16 13 22 45 52 45 44 44 45 47 48 48 50 52 54 56 56 56 56 55 56 55 56 57 58 57 57 56 54 52 47 43 41 40 39 38 38 37 36 34 30 27 24 22 21 20 20 20 23 24 22 20 19 17 16 15 14 12 11 10 10 10 11 11
14 16 15 12 11 13 17 20 20 21 24 25 25 27 27 26 24 22 18 17 18 21 25 29 34 46 52 48 44 45 46 47 49 50 51 53 54 55 56 55 55 55 55 55 56 57 57 58 57 55 54 52 47 43 41 40 40 40 39 38 36 33 29 25 22 20 19 18 19 21 22 21 20 18 17 14 13 11 10 9 9 9 9 10 10 11
17 18 16 17 20 21 25 25 20 18 23 26 26 26 27 26 25 24 22 23 23 19 27 38 37 39 48 50 43 44 46 47 49 51 52 53 54 55 54 54 54 54 55 56 56 57 57 58 57 55 54 52 46 42 40 41 41 41 40 39 36 32 28 23 20 18 17 17 18 20 20 19 17 15 13 11 9 8 8 8 8 9 9 10 11 12
18 18 17 19 24 25 26 23 18 19 24 28 29 25 23 24 26 26 26 28 24 23 32 43 42 42 47 47 43 44 46 46 49 50 51 53 53 54 54 54 54 54 55 56 56 57 57 57 57 55 54 52 46 42 41 41 42 42 41 39 36 31 26 22 19 17 15 16 17 18 17 15 14 12 10 9 9 9 9 8 9 9 10 11 11 12
16 18 19 21 26 27 23 20 21 24 28 32 29 22 18 21 26 28 29 29 27 32 39 43 44 45 43 41 44 46 45 47 49 49 51 52 52 53 54 54 55 55 55 56 55 56 57 57 57 55 53 52 47 42 41 42 42 42 41 38 34 29 25 21 18 15 14 15 16 15 14 12 11 10 10 10 9 9 8 8 9 9 10 11 11 12
16 19 20 22 28 28 22 22 26 28 31 32 23 14 14 18 24 28 30 29 29 35 40 39 43 47 44 40 44 46 45 48 49 49 51 52 52 54 53 54 55 54 55 55 55 56 57 57 56 54 53 52 47 42 42 42 42 42 40 37 33 27 23 19 15 13 13 14 13 12 11 10 10 10 10 9 9 8 8 8 8 8 9 10 10 10
18 21 22 23 27 28 24 25 29 30 32 27 16 13 17 19 23 27 29 30 32 36 38 38 41 44 45 43 46 48 47 49 50 51 53 52 53 54 53 54 54 54 55 55 55 56 57 56 55 54 52 52 48 43 41 42 42 41 39 37 32 26 21 17 13 12 13 13 11 10 9 9 9 9 9 8 8 7 7 6 6 6 7 8 8 8
19 21 23 21 23 27 27 26 30 30 23 16 16 23 24 20 21 27 31 34 36 35 36 38 39 43 46 47 49 51 50 50 52 52 53 53 53 53 53 54 54 54 54 54 55 56 56 55 55 53 52 52 48 43 41 42 41 40 39 35 30 25 20 15 12 11 12 11 9 8 8 8 8 8 8 7 6 6 6 5 6 6 7 7 8 9
19 20 23 20 19 27 30 29 28 19 8 13 26 27 20 18 22 29 36 39 38 37 36 36 39 44 47 48 50 52 52 52 53 52 52 53 53 53 54 54 53 53 53 54 55 55 55 55 54 52 51 51 48 43 40 41 40 39 38 34 29 24 18 13 11 11 11 9 7 7 7 7 7 7 6 5 5 5 5 5 5 6 7 7 8 10
20 21 22 21 21 28 30 24 15 7 11 25 30 21 18 22 26 32 40 40 38 36 33 33 39 45 48 48 49 51 52 53 53 53 53 53 53 53 53 53 53 53 53 54 54 54 54 54 53 52 50 50 48 43 39 40 39 38 36 33 28 22 16 12 10 10 10 8 6 6 6 5 6 5 5 4 3 3 4 4 5 6 7 8 9 11
21 20 21 22 22 22 20 11 6 16 29 31 23 19 24 28 29 34 41 43 39 32 29 35 45 49 48 49 50 51 53 54 54 54 54 54 54 53 53 53 54 54 53 53 52 52 53 53 53 51 50 49 48 42 38 38 38 36 35 32 27 21 15 10 10 10 8 6 5 4 4 4 4 4 3 3 2 2 2 3 4 6 7 9 11 11
19 19 20 20 16 14 16 17 21 29 31 24 20 24 29 31 32 35 41 44 36 28 33 44 49 49 49 50 50 51 53 55 55 55 56 56 55 54 54 54 54 53 52 52 51 51 52 52 52 51 48 48 47 43 38 37 36 34 33 31 26 20 14 10 10 10 7 5 4 3 2 2 3 3 2 1 1 1 1 2 4 6 8 10 11 12
17 19 19 17 15 15 17 19 19 16 15 19 26 30 31 33 34 36 41 42 34 33 44 50 49 50 51 50 50 52 53 55 56 56 56 57 55 54 54 53 52 52 51 51 50 50 51 51 50 50 48 47 46 43 38 36 35 33 31 30 26 19 14 10 10 9 7 4 3 2 1 1 1 1 1 1 1 1 1 2 4 6 8 11 11 11
17 19 19 19 21 22 18 13 9 9 15 27 32 32 31 33 37 38 38 38 39 44 51 51 49 51 51 50 51 51 51 54 55 55 55 55 54 53 52 51 51 51 51 50 49 49 50 50 50 49 48 46 46 43 37 34 34 32 30 29 25 19 14 11 10 9 7 4 3 2 1 1 1 1 2 2 3 3 3 3 5 6 9 11 12 11
19 20 21 22 24 25 21 17 16 19 26 32 31 30 33 36 38 32 24 31 46 52 50 50 51 51 50 51 51 50 49 51 53 53 53 53 52 52 51 50 51 50 50 50 49 48 49 49 49 48 47 46 45 43 38 33 32 31 29 27 25 20 15 12 11 10 7 5 4 3 3 3 3 3 3 4 4 4 4 4 5 7 9 10 12 12
23 22 22 23 24 23 21 21 26 30 30 28 28 33 36 36 34 27 24 37 50 50 47 50 51 49 50 50 49 49 49 49 50 51 51 51 51 51 51 50 50 50 50 49 48 48 48 48 48 48 47 45 44 43 39 33 31 30 28 26 24 21 16 13 12 10 8 6 5 4 4 4 5 5 5 5 5 6 5 5 6 7 8 10 12 13
23 20 19 21 21 20 20 22 26 29 27 28 32 37 37 34 33 33 38 45 47 45 48 49 48 48 49 48 47 48 48 47 48 49 50 51 51 51 51 50 50 50 50 49 48 47 46 47 47 47 46 45 43 42 40 35 31 29 27 25 24 22 17 14 13 11 8 7 6 6 5 5 6 6 6 6 7 7 7 6 6 7 8 10 12 13
23 19 19 21 19 17 16 16 16 20 28 34 38 38 36 36 37 40 43 45 44 45 47 47 46 48 47 46 47 47 46 46 47 48 49 50 50 50 51 50 49 49 49 48 47 46 46 46 46 46 46 45 42 41 40 36 31 29 27 25 23 21 19 15 13 11 9 8 8 8 7 7 8 8 8 8 8 9 9 8 8 8 9 9 11 12
23 20 20 22 20 16 17 18 19 27 35 38 36 36 37 39 40 41 43 44 44 44 45 46 47 46 46 46 46 44 45 45 45 47 48 49 49 50 51 50 49 49 48 48 47 46 45 44 44 45 45 44 42 41 39 37 33 29 27 25 22 21 19 16 14 12 11 10 9 9 9 9 9 9 9 9 10 10 11 10 10 10 9 9 11 12
24 24 25 27 27 26 28 30 31 34 35 36 37 38 38 38 39 41 43 44 44 44 45 46 46 45 46 46 44 44 44 44 44 46 47 47 48 49 49 49 49 48 48 47 46 45 44 43 43 43 43 43 42 40 38 37 34 30 27 25 22 20 19 17 14 12 11 11 11 10 10 10 11 11 11 11 11 11 12 12 12 11 10 10 10 11
28 30 30 30 31 31 31 32 33 33 32 34 37 39 39 39 39 40 42 43 44 44 45 46 45 45 45 45 44 44 43 43 44 45 45 46 47 47 48 48 48 47 48 47 45 44 43 43 42 42 42 42 41 40 38 36 34 31 27 25 23 20 18 17 15 13 12 12 12 12 12 12 12 12 12 13 13 13 13 14 14 13 12 11 11 11
31 31 31 31 31 32 32 32 33 33 33 34 36 38 39 40 40 40 42 44 44 44 45 46 46 46 45 45 45 45 43 43 44 44 44 45 45 46 47 47 46 47 47 46 45 44 43 42 42 41 41 41 40 39 38 36 34 31 28 25 24 21 19 17 16 14 13 13 14 14 13 13 14 14 14 14 14 14 14 15 15 15 14 13 12 12
31 31 31 30 29 30 32 34 33 34 35 35 37 39 40 40 41 42 43 44 44 45 46 46 46 46 46 46 46 45 45 44 43 44 44 44 44 45 46 46 46 47 47 46 45 44 42 42 41 40 40 40 39 38 37 35 34 31 28 26 24 22 20 19 17 16 15 15 15 15 15 15 15 15 15 15 15 15 15 15 15 16 15 15 14 13
31 31 28 26 27 30 33 35 36 39 41 40 39 40 42 42 44 44 44 45 45 45 46 47 48 48 47 46 46 47 47 45 45 45 44 44 44 45 45 45 45 45 46 46 45 43 42 42 41 40 40 39 39 38 36 35 34 32 30 27 24 23 22 20 19 18 17 16 17 17 17 17 16 16 16 16 16 15 15 15 15 15 16 15 15 14
27 25 21 22 27 31 33 34 37 41 45 46 44 44 45 46 46 47 47 48 47 47 47 47 48 49 48 47 47 47 47 47 47 46 45 45 45 45 45 45 45 45 45 46 45 44 43 41 40 40 39 39 39 38 36 35 34 33 31 28 25 23 22 21 20 20 19 18 18 18 19 19 18 17 17 17 16 16 16 15 15 15 16 16 16 15
19 18 18 22 28 32 34 35 36 39 46 49 48 47 48 49 50 51 51 51 51 50 49 49 49 49 49 48 48 47 47 48 48 47 46 46 46 46 46 46 45 45 45 45 45 45 43 41 40 40 39 39 38 37 36 35 33 32 31 29 26 24 22 22 21 21 20 20 20 20 20 21 21 20 19 18 18 17 16 16 16 16 17 17 17 16
Wind_Direction
14 1 23 28 23 24 21 19 18 13 8 9 11 5 356 341 335 337 338 348 346 335 340 348 315 299 313 322 316 308 309 312 309 305 308 312 316 320 322 324 327 331 333 330 326 325 325 323 323 324 323 321 319 318 316 314 313 311 309 310 311 309 307 305 304 302 299 298 300 300 299 299 298 298 298 296 293 292 294 295 294 292 290 287 282 278
8 11 32 28 20 19 19 22 18 10 4 8 11 352 343 339 338 345 349 352 345 328 331 338 304 297 310 316 311 308 311 311 307 306 308 313 318 320 320 324 330 333 332 328 324 322 321 322 324 326 325 323 320 318 315 313 310 309 309 310 310 306 302 300 297 295 294 294 294 291 289 292 295 296 294 291 289 289 290 291 292 293 295 295 291 286
13 23 31 24 16 13 18 23 16 9 4 6 7 346 341 339 337 346 353 352 345 324 324 324 294 295 306 309 309 313 312 307 304 303 309 317 319 318 321 328 333 333 330 325 321 320 321 323 325 328 327 326 323 320 316 311 310 312 313 312 310 306 303 300 298 296 291 289 289 285 281 280 284 289 288 284 286 288 288 287 287 291 296 298 296 295
24 29 26 18 14 16 19 18 12 11 8 5 1 348 342 339 337 340 345 351 350 326 318 315 301 299 303 305 311 314 309 304 302 305 312 316 316 319 327 333 333 331 327 324 321 321 323 325 328 331 331 329 326 319 311 308 310 313 315 315 312 307 303 300 299 298 292 288 286 281 279 275 271 276 277 273 278 283 283 284 286 290 294 293 291 292
30 29 21 14 15 18 18 12 8 9 9 6 360 350 341 337 336 332 335 344 350 338 313 317 312 299 300 309 313 311 307 306 307 311 315 316 320 327 333 333 330 327 325 323 321 321 324 327 332 334 333 332 328 315 306 306 309 315 319 319 314 309 304 297 294 294 293 293 293 286 279 276 269 270 272 270 271 276 278 281 283 285 287 284 283 286
29 25 17 13 15 17 12 9 9 6 6 6 359 349 340 333 333 336 339 340 344 343 315 321 318 296 306 312 312 311 309 310 313 315 318 322 328 331 332 329 325 323 323 321 320 322 325 330 334 335 333 333 330 321 311 307 310 318 322 319 317 316 314 305 299 299 299 297 299 295 279 274 273 270 268 262 261 268 272 274 273 273 276 277 279 284
22 20 16 12 12 13 8 10 11 4 2 4 357 350 342 331 328 335 344 338 335 327 312 313 294 293 311 310 308 311 308 311 319 321 323 328 330 329 328 324 321 321 322 320 321 326 328 331 334 334 334 333 331 324 314 310 315 320 323 322 322 323 319 313 307 305 303 296 296 293 274 267 270 267 262 257 260 267 268 268 266 266 271 276 280 281
14 17 15 13 10 6 5 10 7 1 2 360 356 355 349 338 334 333 338 335 322 315 315 309 287 302 307 307 307 309 310 317 325 327 328 329 328 325 323 320 318 319 320 321 325 328 328 332 335 334 333 333 332 327 320 318 320 321 324 324 323 323 319 313 307 303 300 294 291 288 271 261 261 260 260 262 264 266 265 265 264 264 268 273 276 277
10 10 10 11 10 4 4 6 1 1 1 355 356 1 360 352 348 334 325 332 322 316 312 322 343 319 300 306 310 310 318 325 328 331 329 326 323 320 318 317 316 316 319 324 328 328 328 332 335 334 334 333 331 329 326 324 322 322 325 323 321 325 320 311 308 305 301 294 288 284 272 261 259 259 258 259 260 259 260 262 263 265 268 270 272 274
5 358 3 6 7 5 1 358 358 360 358 356 358 1 5 5 356 336 319 331 323 303 283 313 345 334 302 311 313 315 324 326 327 327 323 321 319 316 316 317 317 319 324 327 327 328 329 331 334 334 334 332 331 331 329 326 324 325 327 323 321 326 322 313 313 312 307 300 289 281 272 262 259 260 261 260 260 261 263 264 264 266 268 271 274 276
4 352 355 2 5 2 357 354 356 358 357 358 359 1 7 8 354 328 303 321 296 280 254 316 337 334 311 310 311 314 319 319 320 318 317 318 319 318 319 321 321 322 324 324 327 331 332 331 333 334 333 332 332 332 330 327 325 327 328 326 324 326 325 320 318 318 315 308 297 284 274 265 260 260 261 262 263 265 266 267 266 267 269 272 274 275
5 353 349 356 358 356 355 353 354 356 359 360 1 3 7 5 353 323 300 304 244 280 270 304 327 323 272 287 308 310 312 315 316 315 317 321 323 324 324 325 324 322 322 324 330 335 334 332 332 332 332 332 332 333 331 328 328 329 329 327 325 326 327 323 322 323 320 315 307 294 281 272 265 262 261 263 264 266 267 267 267 268 270 271 271 270
357 348 344 349 351 353 354 353 353 355 358 359 3 7 9 3 356 345 298 276 257 275 288 312 325 313 273 298 308 310 314 316 315 316 322 326 328 329 328 325 322 320 322 326 331 334 333 332 331 331 332 332 333 335 333 331 331 330 330 329 327 327 328 326 324 324 323 320 315 305 293 282 274 268 265 264 264 265 266 268 268 268 269 269 268 268
351 341 335 340 346 351 351 352 356 354 356 2 6 12 18 18 355 343 305 310 275 283 303 318 321 298 300 310 312 316 317 314 315 320 326 330 330 329 325 322 321 322 325 328 330 332 333 332 332 333 334 334 335 336 334 332 332 331 330 330 328 326 327 326 324 323 323 321 317 312 305 294 286 279 272 269 267 266 266 267 268 268 269 269 269 270
348 324 327 335 340 348 350 351 355 355 358 4 6 11 18 35 34 295 303 316 285 295 311 321 316 298 311 312 314 317 313 312 320 325 330 331 328 324 321 323 326 327 327 327 329 333 335 334 333 334 336 336 336 336 335 333 332 332 330 330 329 325 325 324 322 322 321 320 319 314 309 302 296 291 285 279 274 271 269 268 269 270 270 271 273 275
348 318 325 334 337 345 348 346 349 357 5 1 0 3 1 357 281 265 275 283 281 291 308 312 299 305 309 310 314 316 314 322 328 330 331 328 323 322 325 328 329 328 328 329 332 336 337 336 335 336 338 337 336 336 336 333 332 333 332 331 331 328 325 323 321 319 318 318 319 316 312 307 302 297 294 290 285 281 278 275 275 275 276 277 278 280
350 326 324 338 340 344 346 341 344 355 3 357 355 357 352 345 336 309 282 284 286 274 290 299 300 310 315 317 321 322 324 329 330 328 326 324 324 326 328 327 326 327 329 331 335 337 337 337 337 338 339 338 337 336 335 333 333 333 332 330 331 330 329 325 321 318 316 316 317 316 314 309 306 302 299 296 293 291 288 286 285 284 283 283 282 283
347 333 331 344 342 342 341 337 339 345 352 352 349 354 354 348 352 340 305 297 299 264 290 298 300 311 316 316 321 326 327 330 331 327 325 325 326 327 325 323 325 328 330 332 336 337 337 338 338 339 339 338 337 335 333 333 333 332 329 328 330 331 330 328 324 319 315 315 317 316 314 311 309 307 304 302 299 296 294 292 291 289 288 287 286 286
349 339 338 347 343 339 336 334 336 333 338 343 342 351 360 354 329 338 325 306 314 309 304 301 305 311 310 308 320 327 329 331 333 330 327 326 324 323 321 322 325 328 332 335 338 339 339 339 340 340 339 338 337 335 333 332 331 329 327 327 331 333 332 330 327 321 315 316 317 316 314 313 310 309 307 305 303 300 298 297 295 294 293 291 290 290
349 337 328 341 340 335 333 330 327 323 323 332 339 345 355 357 309 316 315 276 283 298 299 308 311 308 308 316 323 328 330 333 333 326 322 321 322 322 320 321 326 332 336 338 339 340 340 340 341 341 339 339 338 336 334 332 330 330 329 330 334 335 334 332 328 323 318 316 316 315 314 314 312 310 308 306 304 303 302 301 299 297 295 294 293 292
350 334 307 332 337 332 326 318 312 313 312 318 330 335 336 343 334 314 301 273 262 236 285 323 304 300 314 327 328 329 333 333 328 320 319 322 324 324 323 326 332 336 339 340 340 341 340 340 342 342 340 340 339 337 335 334 333 333 333 333 336 337 335 333 330 325 321 318 316 315 315 314 312 310 309 308 306 305 303 301 299 298 296 296 295 295
347 324 300 328 336 325 315 309 303 306 306 310 321 324 324 333 338 326 301 272 254 246 274 288 280 301 321 338 334 332 335 330 322 319 323 327 326 326 328 332 335 338 340 341 341 341 341 341 343 343 342 342 341 339 336 335 336 336 335 335 336 337 335 333 330 326 322 319 317 316 316 314 313 312 311 310 308 306 306 305 304 302 302 302 302 302
340 318 310 329 334 326 319 310 301 301 301 304 313 319 321 323 320 312 258 273 281 276 279 263 257 300 324 339 331 330 330 323 319 321 326 329 328 329 333 334 336 339 341 342 340 341 342 342 343 344 344 343 342 341 338 337 338 337 336 336 336 336 335 332 330 325 321 318 317 317 317 315 314 314 314 313 310 310 311 313 312 311 312 313 314 315
338 324 321 329 330 324 315 301 292 292 293 301 310 316 316 313 311 304 280 281 286 281 282 252 240 297 322 331 326 326 324 320 321 324 328 330 329 332 335 335 338 340 341 341 340 341 342 343 344 345 346 345 343 342 340 339 340 339 338 337 336 335 334 332 330 325 321 318 318 318 318 317 317 317 318 317 314 315 317 318 318 319 322 325 327 330
338 328 323 327 329 325 314 301 300 299 300 305 309 311 310 309 308 303 296 290 278 283 288 217 247 299 318 327 326 326 325 323 326 328 331 332 331 334 337 337 339 340 340 341 341 341 343 344 345 346 347 346 344 342 341 341 342 341 339 338 336 336 335 333 331 326 322 320 320 321 321 321 322 323 322 320 319 321 324 325 327 331 338 343 345 347
329 325 322 315 303 316 311 308 313 310 307 305 306 307 307 306 301 298 298 281 270 290 284 244 273 304 321 332 331 329 328 328 330 331 332 333 333 336 338 338 339 339 339 341 342 342 344 344 346 347 348 348 345 342 342 342 343 342 341 339 337 337 337 335 332 327 323 322 324 326 325 325 327 327 325 324 328 332 334 337 346 355 0 3 2 360
319 322 326 311 297 304 309 314 317 309 304 305 308 307 304 300 296 292 282 272 287 297 282 276 288 304 320 334 335 331 331 331 332 332 333 334 336 338 338 338 339 339 340 342 342 343 343 345 347 348 349 348 346 343 342 343 343 343 342 341 339 339 340 337 334 331 327 326 328 330 330 331 332 332 332 338 343 347 353 4 15 18 16 14 11 8
313 317 324 317 310 314 318 321 318 304 303 309 311 307 301 296 290 284 281 291 304 292 284 302 308 301 314 332 335 331 332 331 331 332 333 335 337 338 338 338 338 339 340 342 343 343 343 346 348 349 350 349 346 344 343 344 344 344 343 343 342 341 340 338 337 334 331 332 334 335 336 338 339 343 350 360 7 17 28 33 33 31 28 24 22 20
311 312 318 317 314 319 323 322 316 310 313 316 316 312 303 293 288 288 295 303 300 275 286 311 313 302 316 334 334 330 331 329 329 331 332 335 337 338 338 338 339 341 341 342 343 343 344 347 349 349 350 349 347 345 344 345 345 345 345 344 343 341 341 340 340 339 338 338 340 342 346 349 355 4 16 27 37 42 43 43 41 40 37 33 29 25
307 309 315 315 313 320 326 323 321 322 321 321 320 314 299 289 288 292 302 306 294 285 299 313 310 309 327 337 331 330 331 328 328 330 331 335 337 338 339 339 340 341 341 342 343 342 344 347 349 349 350 350 348 345 345 346 346 347 347 345 344 343 342 342 343 344 344 345 347 353 359 6 16 26 35 41 44 44 44 48 48 44 39 34 29 24
301 306 312 311 311 321 331 327 325 325 321 320 319 311 298 293 289 292 301 307 300 301 313 314 305 316 336 337 328 329 330 328 329 331 332 336 337 339 340 340 340 341 341 342 342 343 345 348 349 349 350 350 349 346 346 347 347 348 348 346 346 346 344 344 347 350 350 351 357 6 16 25 32 35 37 40 40 42 48 50 48 43 37 30 24 20
299 303 310 312 310 317 327 327 325 323 316 312 315 322 317 306 299 300 305 310 309 311 316 309 304 320 337 335 329 331 330 329 331 332 333 336 337 339 340 340 340 341 341 342 343 344 345 347 349 349 350 350 349 346 346 348 348 349 349 349 349 349 348 350 353 354 355 359 7 19 29 36 36 34 34 37 40 44 47 46 43 37 27 19 12 9
297 300 308 311 306 312 322 324 322 321 314 311 326 328 319 309 307 310 313 316 318 316 312 309 314 328 335 333 331 333 332 331 332 333 334 335 338 339 339 340 341 341 341 342 343 344 345 346 349 349 350 351 350 346 345 348 350 350 351 351 351 351 352 355 358 358 0 6 16 28 36 39 35 32 34 37 42 44 41 38 32 19 7 0 358 356
295 298 305 305 297 306 318 323 323 321 309 318 325 323 316 313 315 317 319 321 322 321 316 315 323 332 334 333 332 332 332 332 332 333 333 334 337 338 339 341 341 340 341 342 343 344 344 346 348 349 350 351 350 346 345 347 350 351 352 352 352 353 354 355 359 0 3 12 26 32 39 41 34 32 36 37 43 44 39 32 17 1 350 346 347 348
291 295 300 299 296 303 316 330 336 314 302 316 322 325 324 323 321 320 322 324 326 325 321 319 326 332 333 332 332 332 332 332 332 333 334 334 336 339 340 340 340 340 341 343 343 343 344 345 348 349 350 351 350 347 344 347 350 351 352 353 352 353 354 355 359 360 4 17 30 33 41 42 33 36 39 38 47 50 39 24 360 345 337 338 345 344
290 293 296 299 300 303 313 327 306 302 315 324 329 332 329 325 324 322 322 330 335 330 323 326 330 333 333 332 332 332 332 332 334 334 334 334 336 339 339 339 340 340 341 341 342 342 343 345 347 349 350 350 350 348 344 346 350 352 353 353 352 353 354 354 357 358 3 17 26 34 43 38 33 41 42 46 62 56 35 7 342 335 334 341 348 344
289 290 294 298 299 296 296 296 295 305 318 329 333 331 328 325 326 322 320 331 341 334 328 332 332 332 333 333 332 332 332 333 335 335 334 335 336 337 338 339 339 339 339 340 342 342 343 345 347 349 350 350 350 348 344 344 348 351 353 353 351 351 351 351 354 355 359 10 19 28 37 33 41 52 55 76 100 31 11 341 332 332 336 344 349 343
289 289 291 290 288 287 290 301 308 306 310 322 326 328 328 327 328 322 317 325 338 336 331 333 332 332 334 333 332 333 333 333 335 336 334 334 335 336 337 337 337 337 338 339 341 342 343 344 346 348 350 350 350 349 345 343 346 350 353 352 351 349 347 348 350 350 350 356 3 8 8 14 50 90 125 174 214 256 298 317 327 331 335 343 347 345
293 293 292 284 282 285 282 285 286 270 295 318 325 328 329 327 327 323 317 321 332 333 331 331 331 332 333 332 332 334 333 332 333 334 333 332 333 333 334 335 335 336 337 339 341 342 343 344 346 347 349 350 350 349 345 342 344 348 351 352 350 347 343 344 344 343 341 338 335 328 301 282 245 199 194 209 226 248 276 302 320 327 333 341 347 348
299 297 293 286 285 287 282 274 272 283 306 321 326 329 330 326 324 324 318 320 327 329 329 329 330 330 331 331 331 332 331 331 331 331 331 331 331 331 332 334 335 336 337 339 341 342 343 344 345 347 349 350 350 349 346 342 342 346 349 351 350 346 341 340 339 336 331 320 311 298 276 262 243 225 218 220 229 242 263 289 311 325 334 341 346 349
300 298 294 290 291 289 278 270 279 297 317 328 329 329 328 324 321 319 314 318 324 326 326 327 328 329 330 330 330 330 331 330 330 330 331 330 330 331 332 333 335 335 337 339 340 342 343 344 345 346 348 350 350 349 347 342 340 343 346 349 349 345 340 335 332 328 320 309 299 282 268 257 242 236 230 227 233 242 256 278 301 319 333 340 343 347
299 297 291 290 293 292 282 273 281 300 324 335 329 327 325 319 317 318 317 319 323 324 324 325 326 327 328 328 329 330 331 331 331 331 331 331 332 331 332 333 334 335 336 338 340 341 342 343 344 345 347 349 349 349 347 343 339 340 343 346 347 345 340 332 326 321 310 301 290 275 265 255 246 243 238 235 239 244 253 270 288 307 325 334 338 342
294 288 284 288 294 294 284 274 279 303 324 330 326 323 321 318 318 321 320 320 322 323 323 323 325 326 326 327 329 330 331 332 332 332 332 333 333 332 332 333 334 334 336 337 339 340 342 343 344 344 345 347 349 349 348 345 339 337 339 342 344 343 339 331 322 315 305 294 286 276 265 257 250 247 245 245 246 247 253 263 275 291 310 323 330 334
292 286 285 292 296 289 278 280 296 312 322 327 325 321 320 320 322 323 321 320 322 323 322 322 325 326 326 327 328 329 330 332 333 333 333 333 334 334 333 333 334 334 335 337 338 340 341 342 343 344 344 346 347 348 348 346 341 337 336 338 340 340 337 331 321 311 300 290 284 276 267 260 254 250 250 250 251 252 253 257 266 278 293 309 319 325
295 296 294 294 294 290 288 296 312 322 326 325 322 321 322 323 325 324 321 321 322 322 321 322 324 325 325 326 327 327 329 331 332 333 333 334 334 334 334 334 334 334 334 336 337 339 340 341 343 343 343 344 346 347 348 347 343 338 334 334 336 335 333 329 321 308 297 290 284 276 268 263 257 254 254 254 255 256 256 257 261 269 278 293 306 312
303 303 300 298 299 299 301 312 325 330 327 323 320 321 323 324 325 324 321 320 321 322 322 322 323 323 324 324 325 325 327 329 331 332 332 333 334 334 334 335 335 334 334 335 337 338 339 341 342 342 342 343 345 346 346 347 345 340 333 331 332 331 328 325 319 307 295 289 285 279 272 265 261 259 259 259 260 260 260 259 261 264 268 278 290 298
309 306 302 304 306 305 310 326 334 329 324 323 322 322 324 324 324 323 321 320 321 321 321 321 321 322 323 323 323 323 324 326 328 329 330 332 333 333 333 335 335 334 333 334 336 337 338 339 341 342 342 342 343 344 346 346 345 342 336 330 329 328 324 320 315 306 295 287 284 282 276 269 266 264 263 263 264 264 264 264 262 262 264 268 277 286
308 307 309 312 311 309 316 331 334 325 321 324 324 323 325 324 323 322 321 321 321 321 320 320 320 321 322 322 322 321 322 324 325 326 328 330 331 331 332 334 334 334 333 333 335 336 337 339 340 341 341 341 341 343 344 344 344 344 339 332 327 325 323 318 311 304 296 287 282 282 279 275 271 268 267 266 266 267 268 267 265 263 263 265 270 279
312 312 315 315 313 316 324 333 333 325 322 324 326 326 326 324 323 322 321 321 320 320 320 320 319 320 321 322 321 320 320 321 322 323 325 327 327 328 330 331 333 333 332 333 334 335 337 338 339 340 340 340 340 341 343 343 343 343 342 336 329 324 322 318 310 302 295 288 282 279 278 278 275 272 269 268 269 270 271 270 268 265 262 263 267 275
324 322 323 316 312 318 326 334 334 326 321 323 327 327 326 325 324 322 321 320 320 320 320 319 318 319 320 320 320 319 319 319 319 320 322 324 324 325 327 328 330 331 332 332 333 335 336 337 338 339 339 339 339 339 341 342 342 342 342 339 334 327 322 318 312 304 295 288 283 279 277 276 275 274 272 270 269 270 270 270 269 267 264 263 265 271
330 327 322 312 309 313 320 327 328 321 316 319 323 324 324 323 322 321 321 321 321 320 319 318 317 317 318 318 318 318 319 318 317 318 320 321 321 322 323 325 327 329 330 331 331 333 335 336 337 338 338 338 337 337 338 340 341 341 340 340 338 332 324 318 314 307 299 291 284 279 276 275 274 273 272 270 269 269 269 269 268 265 264 265 266 268